TimeMDT,TemperatureF,Dew PointF,Humidity,Sea Level PressureIn,VisibilityMPH,Wind Direction,Wind SpeedMPH,Gust SpeedMPH,PrecipitationIn,Events,Conditions,WindDirDegrees,DateUTC
12:53 AM,24.1,19.0,81,30.22,10.0,North,16.1,23.0,N/A,,Clear,10,2013-03-10 07:53:00
3:53 AM,23.0,17.1,78,30.21,10.0,NNW,3.5,-,N/A,,Clear,330,2013-03-10 09:53:00
4:53 AM,21.9,16.0,78,30.23,10.0,West,3.5,-,N/A,,Clear,280,2013-03-10 10:53:00
6:53 AM,21.0,15.1,78,30.26,10.0,SW,3.5,-,N/A,,Clear,230,2013-03-10 12:53:00
7:53 AM,21.9,15.1,75,30.26,10.0,SSW,3.5,-,N/A,,Clear,210,2013-03-10 13:53:00
8:53 AM,28.9,18.0,64,30.25,10.0,Calm,Calm,-,N/A,,Clear,0,2013-03-10 14:53:00
9:53 AM,30.9,19.0,61,30.26,10.0,Calm,Calm,-,N/A,,Clear,0,2013-03-10 15:53:00
10:53 AM,36.0,18.0,48,30.24,10.0,Variable,3.5,-,N/A,,Clear,0,2013-03-10 16:53:00
11:53 AM,39.0,19.0,45,30.21,10.0,North,5.8,-,N/A,,Clear,350,2013-03-10 17:53:00
12:53 PM,41.0,19.9,43,30.20,10.0,North,9.2,21.9,N/A,,Clear,350,2013-03-10 18:53:00
1:53 PM,42.1,21.0,43,30.16,10.0,North,8.1,-,N/A,,Clear,350,2013-03-10 19:53:00
2:53 PM,43.0,18.0,37,30.11,10.0,Calm,Calm,-,N/A,,Clear,0,2013-03-10 20:53:00
3:53 PM,46.0,19.9,35,30.09,10.0,Variable,3.5,-,N/A,,Clear,0,2013-03-10 21:53:00
4:53 PM,45.0,18.0,34,30.09,10.0,North,12.7,-,N/A,,Clear,360,2013-03-10 22:53:00
5:53 PM,43.0,18.0,37,30.08,10.0,NNW,8.1,-,N/A,,Clear,340,2013-03-10 23:53:00
6:53 PM,39.0,19.0,45,30.09,10.0,NNW,4.6,-,N/A,,Clear,330,2013-03-11 00:53:00
7:53 PM,34.0,21.0,59,30.11,10.0,West,8.1,-,N/A,,Clear,270,2013-03-11 01:53:00
8:53 PM,37.0,19.9,50,30.05,10.0,WSW,9.2,-,N/A,,Clear,250,2013-03-11 02:53:00
9:53 PM,37.0,21.9,54,30.04,10.0,WSW,4.6,-,N/A,,Partly Cloudy,240,2013-03-11 03:53:00
10:53 PM,41.0,17.1,38,29.99,10.0,NNW,10.4,-,N/A,,Clear,330,2013-03-11 04:53:00
11:53 PM,35.1,19.0,52,29.99,10.0,WSW,4.6,-,N/A,,Partly Cloudy,240,2013-03-11 05:53:00
12:53 AM,37.0,19.0,48,29.96,10.0,South,3.5,-,N/A,,Overcast,190,2013-03-11 06:53:00